Weather Service Report


516 
ASUS45 KABQ 280101
RWRNM 
WEATHER ROUNDUP FOR NEW MEXICO
NATIONAL WEATHER SERVICE ALBUQUERQUE NM
600 PM MST SAT DEC 27 2014

NOTE: "FAIR" MEANS FEW OR NO CLOUDS BELOW 12,000 FEET AGL WITH NO
       SIGNIFICANT WEATHER OR OBSTRUCTIONS TO VISION.

      THIS PRODUCT IS RELEASED AS TWO VERSIONS.  ONE VERSION NEAR
      THE TOP OF THE HOUR CONTAINING PRELIMINARY DATA FROM ALBUQUERQUE
      AND OTHER STATIONS.  A FINAL VERSION WITH ADDITIONAL DATA IS 
      ISSUED ABOUT 10 MINUTES AFTER THE HOUR.
 
NMZ501-503-504-510>518-280200-
NORTHWEST PLATEAU/NORTHCENTRAL MOUNTAINS
  
CITY           SKY/WX    TMP DP  RH WIND       PRES   REMARKS
FARMINGTON     CLEAR     20  12  71 CALM      30.27R                  
LOS ALAMOS     PTCLDY    23  12  62 CALM      30.17R                  
SANTA FE       PTCLDY    25   9  50 CALM      30.16S                  
TAOS           MOCLDY    10   1  67 NE5       30.17R WCI   2          

$$
NMZ402-403-502-505>509-280200-
WESTCENTRAL MOUNTAINS/SOUTHWEST MOUNTAINS
  
CITY           SKY/WX    TMP DP  RH WIND       PRES   REMARKS
GALLUP         PTCLDY    10   4  76 CALM      30.24R                  
GRANTS         PTCLDY    18  10  68 NW7       30.24R WCI   9          
SILVER CITY    PTCLDY    34  10  37 SW5       30.23R WCI  30          

$$
NMZ407-409-411-412-280200-
SOUTHERN DESERTS
  
CITY           SKY/WX    TMP DP  RH WIND       PRES   REMARKS
LORDSBURG      FAIR      34  27  75 CALM      30.23R                  
DEMING         PTCLDY    35  24  64 SW5       30.23R WCI  31          
HOLLOMAN AFB   PTCLDY    35  23  63 W7        30.21R WCI  29          
ALAMOGORDO     PTCLDY    36  21  55 NW6       30.22R WCI  31          
T OR C         PTCLDY    35  11  36 N5        30.21R WCI  31          

$$
NMZ519>523-280200-
CENTRAL VALLEYS/CENTRAL HIGHLANDS
  
CITY           SKY/WX    TMP DP  RH WIND       PRES   REMARKS
ALBUQUERQUE    PTCLDY    33   8  35 N9        30.22R WCI  25          
DOUBLE EAGLE   CLEAR     25   7  46 NW8       30.22R WCI  16          
MORIARTY ARPT  FAIR      23  11  61 W7        30.19S WCI  15          
CLINES CORNERS PTCLDY    12   8  84 W14       30.12R WCI  -3          
BELEN          FAIR      29  15  55 E5        30.22S WCI  24          
SOCORRO        FAIR      32  11  42 N5        30.22R WCI  27          

$$
NMZ524>526-539-540-280200-
SOUTHCENTRAL MOUNTAINS
  
CITY           SKY/WX    TMP DP  RH WIND       PRES   REMARKS
RUIDOSO        CLOUDY    25  18  74 SE8       30.19R WCI  16          

$$
NMZ527>531-280200-
NORTHEAST HIGHLANDS/NORTHEAST PLAINS
  
CITY           SKY/WX    TMP DP  RH WIND       PRES   REMARKS
LAS VEGAS      PTCLDY    13   9  84 N8        30.10R WCI   2          
RATON          PTCLDY     6   4  91 NW3       30.11S                  
CLAYTON        CLEAR     21  15  78 SW8       30.13F WCI  11          

$$
NMZ532>537-280200-
EASTCENTRAL PLAINS
  
CITY           SKY/WX    TMP DP  RH WIND       PRES   REMARKS
TUCUMCARI      CLEAR     23  18  81 SE5       30.21R WCI  17          
CANNON AFB     CLEAR     27  17  65 SE3       30.22R                  
CLOVIS AIRPORT CLEAR     27  14  59 N5        30.22S WCI  21          

$$
NMZ028-029-538-280200-
SOUTHEAST PLAINS
  
CITY           SKY/WX    TMP DP  RH WIND       PRES   REMARKS
ROSWELL        CLEAR     33  18  53 SW5       30.24S WCI  29          
ARTESIA        CLEAR     32  23  69 W3        30.26S                  
CARLSBAD       PTCLDY    35  31  85 SW5       30.26R WCI  31          
HOBBS          CLEAR     32  28  86 N6        30.25S WCI  26          


$$

Return to Home page


Western Regional Climate Center, wrcc@dri.edu